| time (UTC) | temp C | wind direction | speed KPH | gust KPH | rain 1hr cm | rain 24hr cm | rain mn cm | humidity % | barometer mb |
| 20260504000034 | 13 | 223 | 1.6 | 6.4 | 0.00 | 0.00 | 0.00 | 39 | 1012.7 |
| 20260503234634 | 13 | 192 | 1.6 | 9.7 | 0.00 | 0.00 | 0.00 | 37 | 1012.5 |
| 20260503233033 | 15 | 240 | 3.2 | 14.5 | 0.00 | 0.00 | 0.00 | 36 | 1012.5 |
| 20260503231533 | 15 | 196 | 4.8 | 16.1 | 0.00 | 0.00 | 0.00 | 35 | 1012.4 |
| 20260503230041 | 15 | 188 | 8.0 | 24.1 | 0.00 | 0.00 | 0.00 | 34 | 1012.3 |
| 20260503224531 | 15 | 266 | 8.0 | 19.3 | 0.00 | 0.00 | 0.00 | 33 | 1012.2 |
| 20260503223030 | 15 | 261 | 6.4 | 14.5 | 0.00 | 0.00 | 0.00 | 34 | 1012.2 |
| 20260503221531 | 15 | 252 | 1.6 | 14.5 | 0.00 | 0.00 | 0.00 | 34 | 1012.2 |
| 20260503220028 | 15 | 213 | 8.0 | 20.9 | 0.00 | 0.00 | 0.00 | 33 | 1012.3 |
| 20260503214537 | 15 | 252 | 9.7 | 22.5 | 0.00 | 0.00 | 0.00 | 32 | 1012.3 |
| 20260503213028 | 15 | 224 | 4.8 | 17.7 | 0.00 | 0.00 | 0.00 | 33 | 1012.3 |
| 20260503211528 | 15 | 284 | 3.2 | 19.3 | 0.00 | 0.00 | 0.00 | 32 | 1012.2 |
| 20260503210025 | 15 | 266 | 11.3 | 25.7 | 0.00 | 0.00 | 0.00 | 31 | 1012.2 |
| 20260503204524 | 15 | 226 | 4.8 | 30.6 | 0.00 | 0.00 | 0.00 | 31 | 1012.2 |
| 20260503203032 | 15 | 263 | 6.4 | 20.9 | 0.00 | 0.00 | 0.00 | 31 | 1012.3 |
| 20260503201522 | 15 | 230 | 4.8 | 24.1 | 0.00 | 0.00 | 0.00 | 33 | 1012.4 |
| 20260503200020 | 14 | 262 | 12.9 | 24.1 | 0.00 | 0.00 | 0.00 | 33 | 1012.6 |
| 20260503194518 | 14 | 225 | 8.0 | 17.7 | 0.00 | 0.00 | 0.00 | 34 | 1012.7 |
| 20260503193033 | 13 | 320 | 12.9 | 35.4 | 0.00 | 0.00 | 0.00 | 34 | 1013.0 |
| 20260503191532 | 13 | 258 | 9.7 | 17.7 | 0.00 | 0.00 | 0.00 | 34 | 1013.0 |
| 20260503190025 | 13 | 261 | 9.7 | 27.4 | 0.00 | 0.00 | 0.00 | 36 | 1013.3 |
| 20260503184513 | 13 | 219 | 12.9 | 30.6 | 0.00 | 0.00 | 0.00 | 35 | 1013.4 |
| 20260503183012 | 12 | 310 | 6.4 | 24.1 | 0.00 | 0.00 | 0.00 | 37 | 1013.6 |
| 20260503181511 | 13 | 254 | 12.9 | 27.4 | 0.00 | 0.00 | 0.00 | 35 | 1013.6 |
| 20260503180009 | 12 | 37 | 3.2 | 32.2 | 0.00 | 0.00 | 0.00 | 36 | 1013.5 |
| 20260503174509 | 12 | 261 | 11.3 | 32.2 | 0.00 | 0.00 | 0.00 | 36 | 1013.6 |
| 20260503173009 | 12 | 201 | 8.0 | 32.2 | 0.00 | 0.00 | 0.00 | 37 | 1013.7 |
| 20260503171506 | 12 | 215 | 4.8 | 35.4 | 0.00 | 0.00 | 0.00 | 37 | 1013.9 |
| 20260503160108 | 10 | 327 | 4.8 | 19.3 | 0.00 | 0.00 | 0.00 | 44 | 1014.4 |
| 20260503081514 | 5 | 271 | 0.0 | 4.8 | 0.00 | 0.00 | 0.00 | 74 | 1012.0 |
| 20260503071506 | 6 | 312 | 0.0 | 1.6 | 0.00 | 0.00 | 0.00 | 74 | 1011.5 |
| 20260503054609 | 7 | 294 | 0.0 | 4.8 | 0.00 | 0.00 | 0.00 | 70 | 1011.8 |
| 20260503053053 | 7 | 82 | 0.0 | 4.8 | 0.00 | 0.00 | 0.00 | 70 | 1011.9 |
| 20260503051550 | 7 | 311 | 0.0 | 4.8 | 0.00 | 0.00 | 0.00 | 69 | 1012.0 |
| 20260503050048 | 7 | 223 | 0.0 | 6.4 | 0.00 | 0.00 | 0.00 | 68 | 1012.1 |
| 20260503044546 | 7 | 261 | 1.6 | 8.0 | 0.00 | 0.00 | 0.00 | 66 | 1012.2 |
| 20260503043051 | 8 | 246 | 1.6 | 8.0 | 0.00 | 0.00 | 0.00 | 65 | 1012.3 |
| 20260503041540 | 8 | 246 | 1.6 | 8.0 | 0.00 | 0.00 | 0.00 | 64 | 1012.5 |
| 20260503040038 | 8 | 329 | 1.6 | 9.7 | 0.00 | 0.00 | 0.00 | 63 | 1012.5 |
| 20260503034542 | 8 | 260 | 1.6 | 6.4 | 0.00 | 0.00 | 0.00 | 63 | 1012.6 |
| 20260503033036 | 8 | 269 | 1.6 | 6.4 | 0.00 | 0.00 | 0.00 | 62 | 1012.6 |
| 20260503031535 | 8 | 62 | 0.0 | 1.6 | 0.00 | 0.00 | 0.00 | 60 | 1012.7 |
| 20260503030037 | 8 | 226 | 0.0 | 6.4 | 0.00 | 0.00 | 0.00 | 59 | 1012.7 |
| 20260503024537 | 8 | 243 | 0.0 | 6.4 | 0.00 | 0.00 | 0.00 | 59 | 1012.7 |
| 20260503023036 | 9 | 317 | 0.0 | 3.2 | 0.00 | 0.00 | 0.00 | 58 | 1012.7 |
| 20260503021533 | 9 | 300 | 0.0 | 3.2 | 0.00 | 0.00 | 0.00 | 58 | 1012.7 |
| 20260503020033 | 8 | 136 | 0.0 | 1.6 | 0.00 | 0.00 | 0.00 | 62 | 1012.7 |
| 20260503014532 | 7 | 213 | 0.0 | 0.0 | 0.00 | 0.00 | 0.00 | 62 | 1012.6 |
| 20260503013039 | 8 | 213 | 0.0 | 0.0 | 0.00 | 0.00 | 0.00 | 62 | 1012.5 |
| 20260503011531 | 8 | 213 | 0.0 | 0.0 | 0.00 | 0.00 | 0.00 | 58 | 1012.5 |
| 20260503010031 | 9 | 213 | 0.0 | 1.6 | 0.00 | 0.00 | 0.00 | 59 | 1012.3 |
| 20260503004535 | 10 | 213 | 0.0 | 0.0 | 0.00 | 0.00 | 0.00 | 54 | 1012.1 |
| 20260503003042 | 10 | 212 | 0.0 | 1.6 | 0.00 | 0.00 | 0.00 | 51 | 1012.0 |
| 20260503001540 | 11 | 252 | 0.0 | 4.8 | 0.00 | 0.00 | 0.00 | 48 | 1011.9 |